• In Belarus
  • List of Countries
  • For 7 days
  • Water Temperature
  • Satellite Maps
  • Weather Map
  • Weather Widgets
  • user-avatar
    Login

    Hourly Weather Oyem

    Today, 25 June, Tuesday

    Time Temperature Precipitation Wind Pressure Humidity
    00:00 +21°C° 0 mm 1 mps 704 mmHg 98%
    01:00 +21°C° 0 mm 1 mps 704 mmHg 99%
    02:00 +21°C° 0 mm 1 mps 704 mmHg 99%
    03:00 +21°C° 0 mm 1 mps 704 mmHg 99%
    04:00 +21°C° 0 mm 1 mps 703 mmHg 99%
    05:00 +21°C° 0 mm 1 mps 704 mmHg 98%
    06:00 +21°C° 0 mm 1 mps 704 mmHg 98%
    07:00 +21°C° 0 mm 1 mps 704 mmHg 97%
    08:00 +22°C° 0 mm 1 mps 705 mmHg 94%
    09:00 +23°C° 0 mm 1 mps 705 mmHg 90%
    10:00 +23°C° 0 mm 1 mps 706 mmHg 87%
    11:00 +26°C° 0 mm 1 mps 706 mmHg 75%
    12:00 +28°C° 0 mm 1 mps 705 mmHg 64%
    13:00 +30°C° 0 mm 1 mps 705 mmHg 52%
    14:00 +30°C° 0.1 mm 1 mps 704 mmHg 57%
    15:00 +29°C° 0.1 mm 1 mps 704 mmHg 61%
    16:00 +29°C° 0.1 mm 1 mps 703 mmHg 66%
    17:00 +27°C° 0.2 mm 1 mps 703 mmHg 74%
    18:00 +25°C° 0.2 mm 1 mps 703 mmHg 81%
    19:00 +23°C° 0.2 mm 1 mps 704 mmHg 89%
    20:00 +23°C° 0 mm 1 mps 704 mmHg 92%
    21:00 +22°C° 0 mm 1 mps 704 mmHg 94%
    22:00 +22°C° 0 mm 1 mps 705 mmHg 97%
    23:00 +22°C° 0 mm 1 mps 705 mmHg 97%

    Tomorrow, 26 June, Wednesday

    Time Temperature Precipitation Wind Pressure Humidity
    00:00 +21°C° 0 mm 1 mps 704 mmHg 98%
    01:00 +21°C° 0 mm 1 mps 704 mmHg 99%
    02:00 +21°C° 0 mm 1 mps 704 mmHg 97%
    03:00 +21°C° 0 mm 1 mps 704 mmHg 96%
    04:00 +21°C° 0 mm 1 mps 704 mmHg 94%
    05:00 +21°C° 0 mm 1 mps 704 mmHg 94%
    06:00 +21°C° 0 mm 1 mps 705 mmHg 94%
    07:00 +21°C° 0 mm 1 mps 705 mmHg 94%
    08:00 +22°C° 0 mm 1 mps 706 mmHg 88%
    09:00 +23°C° 0 mm 1 mps 706 mmHg 83%
    10:00 +24°C° 0 mm 1 mps 707 mmHg 77%
    11:00 +25°C° 0 mm 1 mps 707 mmHg 74%
    12:00 +26°C° 0 mm 1 mps 706 mmHg 71%
    13:00 +27°C° 0 mm 1 mps 706 mmHg 67%
    14:00 +27°C° 0 mm 1 mps 705 mmHg 66%
    15:00 +27°C° 0 mm 1 mps 705 mmHg 64%
    16:00 +28°C° 0 mm 1 mps 704 mmHg 63%
    17:00 +26°C° 0.1 mm 1 mps 704 mmHg 72%
    18:00 +24°C° 0.1 mm 1 mps 704 mmHg 81%
    19:00 +22°C° 0.1 mm 1 mps 705 mmHg 90%
    20:00 +22°C° 0 mm 1 mps 705 mmHg 92%
    21:00 +21°C° 0 mm 1 mps 705 mmHg 94%
    22:00 +21°C° 0 mm 1 mps 706 mmHg 96%
    23:00 +21°C° 0 mm 1 mps 705 mmHg 97%

    Day after tomorrow, 27 June, Thursday

    Time Temperature Precipitation Wind Pressure Humidity
    00:00 +21°C° 0 mm 1 mps 705 mmHg 98%
    01:00 +20°C° 0 mm 1 mps 705 mmHg 98%
    02:00 +20°C° 0 mm 1 mps 705 mmHg 98%
    03:00 +20°C° 0 mm 1 mps 705 mmHg 99%
    04:00 +20°C° 0 mm 1 mps 704 mmHg 99%
    05:00 +20°C° 0 mm 1 mps 705 mmHg 97%
    06:00 +18°C° 0 mm 0 mps 705 mmHg 96%
    07:00 +18°C° 0 mm 0 mps 705 mmHg 95%
    08:00 +22°C° 0 mm 1 mps 705 mmHg 86%
    09:00 +24°C° 0 mm 1 mps 706 mmHg 77%
    10:00 +26°C° 0 mm 1 mps 706 mmHg 68%
    11:00 +27°C° 0 mm 1 mps 706 mmHg 60%
    12:00 +29°C° 0 mm 1 mps 706 mmHg 52%
    13:00 +31°C° 0 mm 1 mps 706 mmHg 45%
    14:00 +31°C° 0 mm 1 mps 705 mmHg 45%
    15:00 +31°C° 0 mm 1 mps 704 mmHg 45%
    16:00 +30°C° 0 mm 1 mps 703 mmHg 45%
    17:00 +28°C° 0 mm 1 mps 703 mmHg 55%
    18:00 +26°C° 0 mm 1 mps 703 mmHg 65%
    19:00 +24°C° 0 mm 1 mps 703 mmHg 74%
    20:00 +23°C° 0 mm 1 mps 704 mmHg 79%
    21:00 +23°C° 0 mm 1 mps 704 mmHg 83%
    22:00 +22°C° 0 mm 1 mps 705 mmHg 88%
    23:00 +21°C° 0 mm 1 mps 705 mmHg 91%

    28 June, Friday

    Time Temperature Precipitation Wind Pressure Humidity
    00:00 +21°C° 0 mm 1 mps 705 mmHg 94%
    01:00 +21°C° 0 mm 1 mps 705 mmHg 97%
    02:00 +21°C° 0 mm 1 mps 704 mmHg 97%
    03:00 +21°C° 0 mm 1 mps 704 mmHg 97%
    04:00 +21°C° 0 mm 1 mps 704 mmHg 96%
    05:00 +21°C° 0 mm 1 mps 704 mmHg 94%
    06:00 +21°C° 0 mm 1 mps 705 mmHg 92%
    07:00 +21°C° 0 mm 1 mps 705 mmHg 91%
    08:00 +22°C° 0 mm 1 mps 706 mmHg 86%
    09:00 +23°C° 0 mm 1 mps 706 mmHg 81%
    10:00 +24°C° 0 mm 1 mps 707 mmHg 77%
    11:00 +26°C° 0 mm 1 mps 706 mmHg 68%
    12:00 +28°C° 0 mm 1 mps 706 mmHg 60%
    13:00 +31°C° 0 mm 1 mps 706 mmHg 51%
    14:00 +31°C° 0 mm 1 mps 705 mmHg 50%
    15:00 +29°C° 0 mm 0 mps 704 mmHg 48%
    16:00 +29°C° 0 mm 0 mps 704 mmHg 47%
    17:00 +26°C° 0 mm 0 mps 704 mmHg 55%
    18:00 +24°C° 0 mm 0 mps 704 mmHg 64%
    19:00 +22°C° 0 mm 0 mps 704 mmHg 73%
    20:00 +21°C° 0 mm 0 mps 704 mmHg 79%
    21:00 +22°C° 0 mm 1 mps 704 mmHg 85%
    22:00 +22°C° 0 mm 1 mps 705 mmHg 91%
    23:00 +21°C° 0 mm 1 mps 705 mmHg 94%

    29 June, Saturday

    Time Temperature Precipitation Wind Pressure Humidity
    00:00 +21°C° 0 mm 1 mps 705 mmHg 96%
    01:00 +20°C° 0 mm 1 mps 704 mmHg 99%
    02:00 +20°C° 0 mm 1 mps 704 mmHg 99%
    03:00 +20°C° 0 mm 1 mps 704 mmHg 99%
    04:00 +20°C° 0 mm 1 mps 704 mmHg 99%
    05:00 +20°C° 0 mm 1 mps 704 mmHg 98%
    06:00 +20°C° 0 mm 1 mps 705 mmHg 97%
    07:00 +21°C° 0 mm 1 mps 705 mmHg 96%
    08:00 +21°C° 0 mm 1 mps 705 mmHg 92%
    09:00 +22°C° 0 mm 1 mps 706 mmHg 88%
    10:00 +23°C° 0 mm 1 mps 706 mmHg 83%
    11:00 +24°C° 0 mm 0 mps 706 mmHg 73%
    12:00 +27°C° 0 mm 0 mps 706 mmHg 62%
    13:00 +30°C° 0 mm 0 mps 705 mmHg 51%
    14:00 +30°C° 0 mm 0 mps 705 mmHg 51%
    15:00 +29°C° 0 mm 0 mps 704 mmHg 50%
    16:00 +29°C° 0 mm 0 mps 703 mmHg 49%
    17:00 +27°C° 0 mm 0 mps 703 mmHg 56%
    18:00 +25°C° 0 mm 0 mps 703 mmHg 63%
    19:00 +24°C° 0 mm 0 mps 704 mmHg 70%
    20:00 +23°C° 0 mm 0 mps 704 mmHg 73%
    21:00 +23°C° 0 mm 0 mps 704 mmHg 75%
    22:00 +22°C° 0 mm 0 mps 705 mmHg 77%
    23:00 +24°C° 0 mm 1 mps 705 mmHg 81%

    30 June, Sunday

    Time Temperature Precipitation Wind Pressure Humidity
    00:00 +23°C° 0 mm 1 mps 704 mmHg 85%
    01:00 +22°C° 0 mm 1 mps 704 mmHg 89%
    02:00 +22°C° 0 mm 1 mps 704 mmHg 92%
    03:00 +21°C° 0 mm 1 mps 704 mmHg 94%
    04:00 +21°C° 0 mm 1 mps 704 mmHg 97%
    05:00 +21°C° 0 mm 1 mps 704 mmHg 95%
    06:00 +21°C° 0 mm 1 mps 705 mmHg 93%
    07:00 +22°C° 0 mm 1 mps 705 mmHg 91%
    08:00 +22°C° 0 mm 1 mps 706 mmHg 88%
    09:00 +23°C° 0 mm 1 mps 706 mmHg 84%
    10:00 +24°C° 0 mm 1 mps 707 mmHg 81%
    11:00 +25°C° 0 mm 1 mps 706 mmHg 77%
    12:00 +26°C° 0 mm 1 mps 706 mmHg 74%
    13:00 +27°C° 0 mm 1 mps 705 mmHg 70%
    14:00 +27°C° 0 mm 1 mps 705 mmHg 70%
    15:00 +27°C° 0 mm 1 mps 704 mmHg 69%
    16:00 +27°C° 0 mm 1 mps 704 mmHg 68%
    17:00 +26°C° 0 mm 1 mps 704 mmHg 74%
    18:00 +25°C° 0 mm 1 mps 704 mmHg 79%
    19:00 +22°C° 0 mm 0 mps 704 mmHg 85%
    20:00 +21°C° 0.1 mm 0 mps 705 mmHg 87%
    21:00 +23°C° 0.1 mm 1 mps 705 mmHg 90%
    22:00 +22°C° 0.1 mm 1 mps 705 mmHg 93%
    23:00 +22°C° 0 mm 1 mps 705 mmHg 95%
    Show more